Time,TemperatureF,DewpointF,PressureIn,WindDirection,WindDirectionDegrees,WindSpeedMPH,WindSpeedGustMPH,Humidity,HourlyPrecipIn,Conditions,Clouds,dailyrainin,SoftwareType,DateUTC
2013-02-23 00:00:00,68.2,66.1,30.00,SSW,207,0.0,4.0,93,0.00,,,0.00,Wunderground v.1.15,2013-02-23 05:00:00,
2013-02-23 00:10:00,67.9,65.8,30.00,SSW,207,0.0,4.0,93,0.00,,,0.00,Wunderground v.1.15,2013-02-23 05:10:00,
2013-02-23 00:20:00,67.9,66.1,29.99,SSW,207,0.0,4.0,94,0.00,,,0.00,Wunderground v.1.15,2013-02-23 05:20:00,
2013-02-23 00:30:00,67.8,66.0,29.99,SSW,207,0.0,4.0,94,0.00,,,0.00,Wunderground v.1.15,2013-02-23 05:30:00,
2013-02-23 00:40:00,67.5,66.0,29.99,SSW,207,0.0,4.0,95,0.00,,,0.00,Wunderground v.1.15,2013-02-23 05:40:00,
2013-02-23 00:50:00,67.5,66.0,29.98,SSW,207,0.0,4.0,95,0.00,,,0.00,Wunderground v.1.15,2013-02-23 05:50:00,
2013-02-23 01:00:00,67.5,66.0,29.99,SSW,206,0.0,4.0,95,0.00,,,0.00,Wunderground v.1.15,2013-02-23 06:00:00,
2013-02-23 01:10:00,67.6,66.4,29.99,SSE,161,0.0,4.0,96,0.00,,,0.00,Wunderground v.1.15,2013-02-23 06:10:00,
2013-02-23 01:20:00,67.6,66.4,29.99,SSE,161,0.0,4.0,96,0.00,,,0.00,Wunderground v.1.15,2013-02-23 06:20:00,
2013-02-23 01:30:00,67.5,66.3,29.98,SSE,162,0.0,4.0,96,0.00,,,0.00,Wunderground v.1.15,2013-02-23 06:30:00,
2013-02-23 01:40:00,67.4,66.2,29.98,SSE,161,0.0,4.0,96,0.00,,,0.00,Wunderground v.1.15,2013-02-23 06:40:00,
2013-02-23 01:50:00,67.4,66.2,29.98,SSE,161,0.0,4.0,96,0.00,,,0.00,Wunderground v.1.15,2013-02-23 06:50:00,
2013-02-23 02:00:00,67.3,66.1,29.98,SSE,161,0.0,4.0,96,0.00,,,0.00,Wunderground v.1.15,2013-02-23 07:00:00,
2013-02-23 02:10:00,67.3,66.1,29.97,South,175,0.0,4.0,96,0.00,,,0.00,Wunderground v.1.15,2013-02-23 07:10:00,
2013-02-23 02:20:00,67.2,66.0,29.97,SE,131,0.0,4.0,96,0.00,,,0.00,Wunderground v.1.15,2013-02-23 07:20:00,
2013-02-23 02:30:00,67.2,66.0,29.96,SE,131,0.0,4.0,96,0.00,,,0.00,Wunderground v.1.15,2013-02-23 07:30:00,
2013-02-23 02:40:00,67.1,65.9,29.96,SE,131,0.0,4.0,96,0.00,,,0.00,Wunderground v.1.15,2013-02-23 07:40:00,
2013-02-23 02:50:00,67.1,65.9,29.96,SE,131,0.0,4.0,96,0.00,,,0.00,Wunderground v.1.15,2013-02-23 07:50:00,
2013-02-23 03:00:00,66.8,65.6,29.96,SE,131,0.0,4.0,96,0.00,,,0.00,Wunderground v.1.15,2013-02-23 08:00:00,
2013-02-23 03:10:00,66.5,65.3,29.96,SE,131,0.0,4.0,96,0.00,,,0.00,Wunderground v.1.15,2013-02-23 08:10:00,
2013-02-23 03:20:00,66.3,65.1,29.95,SE,131,0.0,4.0,96,0.00,,,0.00,Wunderground v.1.15,2013-02-23 08:20:00,
2013-02-23 03:30:00,66.2,65.0,29.95,SE,131,0.0,4.0,96,0.00,,,0.00,Wunderground v.1.15,2013-02-23 08:30:00,
2013-02-23 03:40:00,66.0,64.8,29.95,SE,131,0.0,4.0,96,0.00,,,0.00,Wunderground v.1.15,2013-02-23 08:40:00,
2013-02-23 03:50:00,65.9,64.7,29.95,SE,131,0.0,4.0,96,0.00,,,0.00,Wunderground v.1.15,2013-02-23 08:50:00,
2013-02-23 04:00:00,65.9,65.0,29.94,SE,131,0.0,4.0,97,0.00,,,0.00,Wunderground v.1.15,2013-02-23 09:00:00,
2013-02-23 04:10:00,65.9,65.0,29.94,SE,131,0.0,4.0,97,0.00,,,0.00,Wunderground v.1.15,2013-02-23 09:10:00,
2013-02-23 04:20:00,65.8,64.9,29.94,SE,131,0.0,4.0,97,0.00,,,0.00,Wunderground v.1.15,2013-02-23 09:20:00,
2013-02-23 04:30:00,65.7,64.8,29.94,SE,131,0.0,4.0,97,0.00,,,0.00,Wunderground v.1.15,2013-02-23 09:30:00,
2013-02-23 04:40:00,65.7,64.8,29.94,SE,131,0.0,4.0,97,0.00,,,0.00,Wunderground v.1.15,2013-02-23 09:40:00,
2013-02-23 04:50:00,65.7,64.8,29.93,SE,131,0.0,4.0,97,0.00,,,0.00,Wunderground v.1.15,2013-02-23 09:50:00,
2013-02-23 05:00:00,65.7,64.8,29.94,SE,131,0.0,4.0,97,0.00,,,0.00,Wunderground v.1.15,2013-02-23 10:00:00,
2013-02-23 05:10:00,66.1,65.2,29.94,South,176,0.0,4.0,97,0.00,,,0.00,Wunderground v.1.15,2013-02-23 10:10:00,
2013-02-23 05:20:00,66.3,65.4,29.94,South,173,0.0,4.0,97,0.00,,,0.00,Wunderground v.1.15,2013-02-23 10:20:00,
2013-02-23 05:30:00,66.2,65.3,29.94,SW,223,0.0,4.0,97,0.00,,,0.00,Wunderground v.1.15,2013-02-23 10:30:00,
2013-02-23 05:40:00,66.2,65.3,29.94,SSE,166,0.0,4.0,97,0.00,,,0.00,Wunderground v.1.15,2013-02-23 10:40:00,
2013-02-23 05:50:00,66.2,65.3,29.95,SSW,211,0.0,4.0,97,0.00,,,0.00,Wunderground v.1.15,2013-02-23 10:50:00,
2013-02-23 06:00:00,66.2,65.3,29.95,East,79,0.0,4.0,97,0.00,,,0.00,Wunderground v.1.15,2013-02-23 11:00:00,
2013-02-23 06:10:00,66.1,64.9,29.95,South,182,0.0,4.0,96,0.00,,,0.00,Wunderground v.1.15,2013-02-23 11:10:00,
2013-02-23 06:20:00,66.0,64.8,29.95,SE,131,1.0,1.0,96,0.00,,,0.00,Wunderground v.1.15,2013-02-23 11:20:00,
2013-02-23 06:30:00,65.9,65.0,29.95,SSE,162,0.0,4.0,97,0.00,,,0.00,Wunderground v.1.15,2013-02-23 11:30:00,
2013-02-23 06:40:00,66.0,65.1,29.96,SSE,167,0.0,4.0,97,0.00,,,0.00,Wunderground v.1.15,2013-02-23 11:40:00,
2013-02-23 06:50:00,66.1,64.9,29.96,SSW,205,0.0,4.0,96,0.00,,,0.00,Wunderground v.1.15,2013-02-23 11:50:00,
2013-02-23 07:00:00,66.2,65.0,29.96,South,191,0.0,4.0,96,0.00,,,0.00,Wunderground v.1.15,2013-02-23 12:00:00,
2013-02-23 07:10:00,66.3,65.1,29.97,South,171,0.0,4.0,96,0.00,,,0.00,Wunderground v.1.15,2013-02-23 12:10:00,
2013-02-23 07:20:00,66.4,65.5,29.96,ESE,107,0.0,4.0,97,0.00,,,0.00,Wunderground v.1.15,2013-02-23 12:20:00,
2013-02-23 07:30:00,66.6,65.7,29.97,South,171,0.0,4.0,97,0.00,,,0.00,Wunderground v.1.15,2013-02-23 12:30:00,
2013-02-23 07:40:00,66.9,65.7,29.97,South,188,0.0,4.0,96,0.00,,,0.00,Wunderground v.1.15,2013-02-23 12:40:00,
2013-02-23 07:50:00,67.1,65.9,29.97,South,187,0.0,4.0,96,0.00,,,0.00,Wunderground v.1.15,2013-02-23 12:50:00,
2013-02-23 08:00:00,67.3,66.1,29.98,SSW,192,0.0,4.0,96,0.00,,,0.00,Wunderground v.1.15,2013-02-23 13:00:00,
2013-02-23 08:10:00,67.5,66.3,29.98,ESE,120,0.0,4.0,96,0.00,,,0.00,Wunderground v.1.15,2013-02-23 13:10:00,
2013-02-23 08:20:00,67.7,66.5,29.97,ESE,113,0.0,4.0,96,0.00,,,0.00,Wunderground v.1.15,2013-02-23 13:20:00,
2013-02-23 08:30:00,68.0,66.5,29.97,ESE,111,0.0,4.0,95,0.00,,,0.00,Wunderground v.1.15,2013-02-23 13:30:00,
2013-02-23 08:40:00,68.4,66.9,29.97,ESE,117,1.0,1.0,95,0.00,,,0.00,Wunderground v.1.15,2013-02-23 13:40:00,
2013-02-23 08:50:00,69.1,67.3,29.97,SE,132,2.0,2.0,94,0.00,,,0.00,Wunderground v.1.15,2013-02-23 13:50:00,
2013-02-23 09:00:00,69.6,67.2,29.97,South,182,2.0,2.0,92,0.00,,,0.00,Wunderground v.1.15,2013-02-23 14:00:00,
2013-02-23 09:10:00,69.8,67.4,29.97,SSE,157,3.0,5.0,92,0.00,,,0.00,Wunderground v.1.15,2013-02-23 14:10:00,
2013-02-23 09:20:00,70.2,67.4,29.97,SSW,202,3.0,9.0,91,0.00,,,0.00,Wunderground v.1.15,2013-02-23 14:20:00,
2013-02-23 09:30:00,70.8,67.7,29.96,South,180,3.0,3.0,90,0.00,,,0.00,Wunderground v.1.15,2013-02-23 14:30:00,
2013-02-23 09:40:00,71.6,68.2,29.96,East,98,2.0,2.0,89,0.00,,,0.00,Wunderground v.1.15,2013-02-23 14:40:00,
2013-02-23 09:50:00,72.2,67.8,29.96,SSW,192,1.0,5.0,86,0.00,,,0.00,Wunderground v.1.15,2013-02-23 14:50:00,
2013-02-23 10:00:00,72.2,67.8,29.95,South,181,6.0,6.0,86,0.00,,,0.00,Wunderground v.1.15,2013-02-23 15:00:00,
2013-02-23 10:10:00,73.1,67.6,29.95,South,180,5.0,5.0,83,0.00,,,0.00,Wunderground v.1.15,2013-02-23 15:10:00,
2013-02-23 10:20:00,73.8,68.0,29.95,SSW,198,4.0,4.0,82,0.00,,,0.00,Wunderground v.1.15,2013-02-23 15:20:00,
2013-02-23 10:30:00,73.9,67.7,29.96,South,176,5.0,5.0,81,0.00,,,0.00,Wunderground v.1.15,2013-02-23 15:30:00,
2013-02-23 10:40:00,74.3,67.7,29.96,WSW,248,2.0,4.0,80,0.00,,,0.00,Wunderground v.1.15,2013-02-23 15:40:00,
2013-02-23 10:50:00,74.2,67.3,29.96,West,267,4.0,4.0,79,0.00,,,0.00,Wunderground v.1.15,2013-02-23 15:50:00,
2013-02-23 11:00:00,75.2,67.9,29.96,SSW,196,5.0,5.0,78,0.00,,,0.00,Wunderground v.1.15,2013-02-23 16:00:00,
2013-02-23 11:10:00,75.9,67.8,29.97,SSE,161,4.0,5.0,76,0.00,,,0.00,Wunderground v.1.15,2013-02-23 16:10:00,
2013-02-23 11:20:00,75.9,67.8,29.96,SSW,192,5.0,5.0,76,0.00,,,0.00,Wunderground v.1.15,2013-02-23 16:20:00,
2013-02-23 11:30:00,76.3,67.8,29.96,SSE,159,4.0,4.0,75,0.00,,,0.00,Wunderground v.1.15,2013-02-23 16:30:00,
2013-02-23 11:40:00,76.5,67.6,29.95,SW,217,5.0,6.0,74,0.00,,,0.00,Wunderground v.1.15,2013-02-23 16:40:00,
2013-02-23 11:50:00,77.2,68.3,29.95,SW,222,4.0,17.0,74,0.00,,,0.00,Wunderground v.1.15,2013-02-23 16:50:00,
2013-02-23 12:00:00,77.3,68.4,29.95,SW,226,4.0,4.0,74,0.00,,,0.00,Wunderground v.1.15,2013-02-23 17:00:00,
2013-02-23 12:10:00,77.6,68.3,29.94,SSE,159,4.0,4.0,73,0.00,,,0.00,Wunderground v.1.15,2013-02-23 17:10:00,
2013-02-23 12:20:00,78.2,68.4,29.94,WSW,239,3.0,3.0,72,0.00,,,0.00,Wunderground v.1.15,2013-02-23 17:20:00,
2013-02-23 12:30:00,78.3,68.5,29.94,NW,305,2.0,6.0,72,0.00,,,0.00,Wunderground v.1.15,2013-02-23 17:30:00,
2013-02-23 12:40:00,78.6,68.8,29.94,SW,222,3.0,6.0,72,0.00,,,0.00,Wunderground v.1.15,2013-02-23 17:40:00,
2013-02-23 12:50:00,78.2,68.4,29.93,SW,217,2.0,2.0,72,0.00,,,0.00,Wunderground v.1.15,2013-02-23 17:50:00,
2013-02-23 12:59:00,78.2,67.6,29.93,South,180,4.0,4.0,70,0.00,,,0.00,Wunderground v.1.15,2013-02-23 17:59:00,
2013-02-23 13:10:00,79.4,68.3,29.93,WSW,240,4.0,4.0,69,0.00,,,0.00,Wunderground v.1.15,2013-02-23 18:10:00,
2013-02-23 13:20:00,79.5,68.0,29.93,SW,232,2.0,2.0,68,0.00,,,0.00,Wunderground v.1.15,2013-02-23 18:20:00,
2013-02-23 13:30:00,79.7,66.0,29.93,SSE,149,4.0,4.0,63,0.00,,,0.00,Wunderground v.1.15,2013-02-23 18:30:00,
2013-02-23 13:40:00,79.3,66.1,29.92,South,186,7.0,7.0,64,0.00,,,0.00,Wunderground v.1.15,2013-02-23 18:40:00,
2013-02-23 13:50:00,79.6,66.3,29.92,WSW,246,5.0,5.0,64,0.00,,,0.00,Wunderground v.1.15,2013-02-23 18:50:00,
2013-02-23 14:00:00,79.2,66.9,29.91,West,263,5.0,5.0,66,0.00,,,0.00,Wunderground v.1.15,2013-02-23 19:00:00,
2013-02-23 14:10:00,79.4,66.6,29.91,SSW,211,4.0,4.0,65,0.00,,,0.00,Wunderground v.1.15,2013-02-23 19:10:00,
2013-02-23 14:20:00,79.6,66.8,29.90,SW,227,3.0,4.0,65,0.00,,,0.00,Wunderground v.1.15,2013-02-23 19:20:00,
2013-02-23 14:30:00,79.4,66.6,29.90,SSW,198,3.0,3.0,65,0.00,,,0.00,Wunderground v.1.15,2013-02-23 19:30:00,
2013-02-23 14:40:00,79.3,67.0,29.90,WSW,257,2.0,2.0,66,0.00,,,0.00,Wunderground v.1.15,2013-02-23 19:40:00,
2013-02-23 14:50:00,79.4,67.0,29.89,SW,221,2.0,2.0,66,0.00,,,0.00,Wunderground v.1.15,2013-02-23 19:50:00,
2013-02-23 15:00:00,80.4,67.6,29.89,WSW,241,1.0,4.0,65,0.00,,,0.00,Wunderground v.1.15,2013-02-23 20:00:00,
2013-02-23 15:10:00,80.7,66.5,29.89,SW,230,1.0,1.0,62,0.00,,,0.00,Wunderground v.1.15,2013-02-23 20:10:00,
2013-02-23 15:20:00,81.2,67.4,29.89,WNW,296,2.0,2.0,63,0.00,,,0.00,Wunderground v.1.15,2013-02-23 20:20:00,
2013-02-23 15:30:00,81.3,67.0,29.87,SW,215,1.0,9.0,62,0.00,,,0.00,Wunderground v.1.15,2013-02-23 20:30:00,
2013-02-23 15:40:00,81.3,67.0,29.87,WNW,284,1.0,4.0,62,0.00,,,0.00,Wunderground v.1.15,2013-02-23 20:40:00,
2013-02-23 15:50:00,81.6,66.4,29.86,SSE,161,2.0,2.0,60,0.00,,,0.00,Wunderground v.1.15,2013-02-23 20:50:00,
2013-02-23 16:00:00,81.6,66.4,29.86,West,267,1.0,1.0,60,0.00,,,0.00,Wunderground v.1.15,2013-02-23 21:00:00,
2013-02-23 16:10:00,81.6,66.8,29.86,SSW,194,0.0,4.0,61,0.00,,,0.00,Wunderground v.1.15,2013-02-23 21:10:00,
2013-02-23 16:20:00,81.2,66.5,29.86,SSW,196,1.0,4.0,61,0.00,,,0.00,Wunderground v.1.15,2013-02-23 21:20:00,
2013-02-23 16:30:00,81.3,66.1,29.86,South,191,2.0,2.0,60,0.00,,,0.00,Wunderground v.1.15,2013-02-23 21:30:00,
2013-02-23 16:40:00,80.7,66.5,29.86,SSW,196,2.0,4.0,62,0.00,,,0.00,Wunderground v.1.15,2013-02-23 21:40:00,
2013-02-23 16:50:00,80.2,66.5,29.85,South,190,2.0,4.0,63,0.00,,,0.00,Wunderground v.1.15,2013-02-23 21:50:00,
2013-02-23 17:00:00,79.7,66.0,29.85,SW,229,2.0,2.0,63,0.00,,,0.00,Wunderground v.1.15,2013-02-23 22:00:00,
2013-02-23 17:10:00,79.4,66.2,29.86,South,190,1.0,4.0,64,0.00,,,0.00,Wunderground v.1.15,2013-02-23 22:10:00,
2013-02-23 17:20:00,79.3,66.5,29.85,South,189,1.0,9.0,65,0.00,,,0.00,Wunderground v.1.15,2013-02-23 22:20:00,
2013-02-23 17:30:00,79.2,66.4,29.85,SSW,194,1.0,1.0,65,0.00,,,0.00,Wunderground v.1.15,2013-02-23 22:30:00,
2013-02-23 17:40:00,78.9,66.6,29.85,SW,228,1.0,1.0,66,0.00,,,0.00,Wunderground v.1.15,2013-02-23 22:40:00,
2013-02-23 17:50:00,78.7,66.8,29.85,SSW,211,1.0,6.0,67,0.00,,,0.00,Wunderground v.1.15,2013-02-23 22:50:00,
2013-02-23 18:00:00,78.5,67.1,29.86,SSW,213,3.0,7.0,68,0.00,,,0.00,Wunderground v.1.15,2013-02-23 23:00:00,
2013-02-23 18:10:00,78.1,67.1,29.86,SSW,197,2.0,2.0,69,0.00,,,0.00,Wunderground v.1.15,2013-02-23 23:10:00,
2013-02-23 18:20:00,77.6,67.0,29.87,SSW,211,2.0,2.0,70,0.00,,,0.00,Wunderground v.1.15,2013-02-23 23:20:00,
2013-02-23 18:30:00,77.1,67.4,29.87,WSW,242,1.0,4.0,72,0.00,,,0.00,Wunderground v.1.15,2013-02-23 23:30:00,
2013-02-23 18:40:00,76.7,67.4,29.87,SSE,154,1.0,1.0,73,0.00,,,0.00,Wunderground v.1.15,2013-02-23 23:40:00,
2013-02-23 18:50:00,76.5,68.0,29.88,South,175,1.0,1.0,75,0.00,,,0.00,Wunderground v.1.15,2013-02-23 23:50:00,
2013-02-23 19:00:00,76.3,68.2,29.87,SSE,164,1.0,1.0,76,0.00,,,0.00,Wunderground v.1.15,2013-02-24 00:00:00,
2013-02-23 19:10:00,76.1,68.0,29.87,SSW,207,0.0,4.0,76,0.00,,,0.00,Wunderground v.1.15,2013-02-24 00:10:00,
2013-02-23 19:20:00,75.8,68.1,29.88,South,190,0.0,4.0,77,0.00,,,0.00,Wunderground v.1.15,2013-02-24 00:20:00,
2013-02-23 19:30:00,75.6,68.3,29.88,SSW,210,0.0,4.0,78,0.00,,,0.00,Wunderground v.1.15,2013-02-24 00:30:00,
2013-02-23 19:40:00,75.5,67.8,29.88,SSE,161,1.0,1.0,77,0.00,,,0.00,Wunderground v.1.15,2013-02-24 00:40:00,
2013-02-23 19:50:00,75.4,68.1,29.89,SSW,212,1.0,1.0,78,0.00,,,0.00,Wunderground v.1.15,2013-02-24 00:50:00,
2013-02-23 20:00:00,75.3,68.0,29.89,SSW,197,1.0,1.0,78,0.00,,,0.00,Wunderground v.1.15,2013-02-24 01:00:00,
2013-02-23 20:10:00,75.1,68.1,29.89,WSW,247,1.0,4.0,79,0.00,,,0.00,Wunderground v.1.15,2013-02-24 01:10:00,
2013-02-23 20:20:00,75.0,68.0,29.90,WSW,242,1.0,1.0,79,0.00,,,0.00,Wunderground v.1.15,2013-02-24 01:20:00,
2013-02-23 20:30:00,74.8,68.2,29.89,SSW,211,1.0,1.0,80,0.00,,,0.00,Wunderground v.1.15,2013-02-24 01:30:00,
2013-02-23 20:40:00,74.5,68.3,29.89,SSW,205,0.0,4.0,81,0.00,,,0.00,Wunderground v.1.15,2013-02-24 01:40:00,
2013-02-23 20:50:00,74.3,68.4,29.89,South,181,1.0,1.0,82,0.00,,,0.00,Wunderground v.1.15,2013-02-24 01:50:00,
2013-02-23 21:00:00,74.1,68.3,29.93,West,279,1.0,15.0,82,0.00,,,0.00,Wunderground v.1.15,2013-02-24 02:00:00,
2013-02-23 21:10:00,68.3,62.6,29.93,North,11,3.0,3.0,82,0.29,,,0.03,Wunderground v.1.15,2013-02-24 02:10:00,
2013-02-23 21:20:00,64.4,61.4,29.96,West,277,2.0,4.0,90,0.52,,,0.24,Wunderground v.1.15,2013-02-24 02:20:00,
2013-02-23 21:30:00,63.6,61.5,29.96,East,90,1.0,1.0,93,0.28,,,0.30,Wunderground v.1.15,2013-02-24 02:30:00,
2013-02-23 21:40:00,63.2,61.1,29.97,WNW,294,0.0,4.0,93,0.19,,,0.33,Wunderground v.1.15,2013-02-24 02:40:00,
2013-02-23 21:50:00,62.8,61.0,29.95,ENE,68,0.0,4.0,94,0.12,,,0.35,Wunderground v.1.15,2013-02-24 02:50:00,
2013-02-23 22:00:00,62.6,60.8,29.95,NNE,25,0.0,4.0,94,0.06,,,0.35,Wunderground v.1.15,2013-02-24 03:00:00,
2013-02-23 22:10:00,62.4,60.9,29.94,ENE,74,0.0,4.0,95,0.00,,,0.35,Wunderground v.1.15,2013-02-24 03:10:00,
2013-02-23 22:20:00,62.2,60.8,29.94,ENE,74,0.0,4.0,95,0.00,,,0.35,Wunderground v.1.15,2013-02-24 03:20:00,
2013-02-23 22:30:00,62.3,60.8,29.94,ENE,74,0.0,4.0,95,0.00,,,0.36,Wunderground v.1.15,2013-02-24 03:30:00,
2013-02-23 22:40:00,62.2,60.8,29.94,ENE,74,0.0,4.0,95,0.00,,,0.36,Wunderground v.1.15,2013-02-24 03:40:00,
2013-02-23 22:50:00,62.3,61.1,29.94,ENE,74,0.0,4.0,96,0.00,,,0.37,Wunderground v.1.15,2013-02-24 03:50:00,
2013-02-23 23:00:00,62.4,61.2,29.94,ENE,74,0.0,4.0,96,0.00,,,0.37,Wunderground v.1.15,2013-02-24 04:00:00,
2013-02-23 23:10:00,62.4,61.2,29.93,ENE,74,0.0,4.0,96,0.04,,,0.38,Wunderground v.1.15,2013-02-24 04:10:00,
2013-02-23 23:20:00,62.5,61.3,29.92,ENE,74,0.0,4.0,96,0.00,,,0.38,Wunderground v.1.15,2013-02-24 04:20:00,
2013-02-23 23:30:00,62.5,61.3,29.92,ENE,74,0.0,4.0,96,0.00,,,0.38,Wunderground v.1.15,2013-02-24 04:30:00,
2013-02-23 23:40:00,62.5,61.3,29.92,ENE,74,0.0,4.0,96,0.00,,,0.38,Wunderground v.1.15,2013-02-24 04:40:00,
2013-02-23 23:50:00,62.5,61.6,29.92,ENE,74,0.0,4.0,97,0.00,,,0.38,Wunderground v.1.15,2013-02-24 04:50:00,